SWA3576 KDEN-KMIA

Flight info

Callsign SWA3576
Flight time N/A
Altitude 37000
Route EPKEE7 DUUZE ICT RZC KM27K ACORI FROGZ5
Aircraft B738/M-SDE2E3FGHIRWXY/LB1

Departure

Time 2026-05-07 20:41
Airport Denver International Airport (KDEN)

Arrival

Time N/A
Airport Miami International Airport (KMIA)
Time Latitude Longitude Altitude Speed Heading
2026-05-07 19:48 39.86248 -104.66849 5376 ft 0 kts 360°
2026-05-07 20:29 39.86247 -104.66849 5372 ft 1 kts 360°
2026-05-07 20:29 39.86223 -104.66849 5376 ft 4 kts 360°
2026-05-07 20:29 39.86197 -104.66849 5371 ft 4 kts 360°
2026-05-07 20:29 39.86185 -104.66849 5376 ft 0 kts 360°
2026-05-07 20:32 39.86189 -104.66866 5376 ft 5 kts 266°
2026-05-07 20:33 39.86185 -104.66980 5372 ft 17 kts 270°
2026-05-07 20:33 39.86185 -104.67131 5372 ft 16 kts 269°
2026-05-07 20:33 39.86163 -104.67271 5374 ft 16 kts 246°
2026-05-07 20:33 39.86134 -104.67404 5376 ft 15 kts 265°
2026-05-07 20:34 39.86132 -104.67537 5372 ft 14 kts 270°
2026-05-07 20:34 39.86133 -104.67665 5376 ft 14 kts 271°
2026-05-07 20:34 39.86134 -104.67787 5372 ft 13 kts 270°
2026-05-07 20:34 39.86135 -104.67924 5376 ft 17 kts 270°
2026-05-07 20:35 39.86136 -104.68085 5374 ft 19 kts 271°
2026-05-07 20:35 39.86138 -104.68253 5372 ft 18 kts 271°
2026-05-07 20:35 39.86098 -104.68388 5368 ft 17 kts 195°
2026-05-07 20:35 39.86020 -104.68421 5371 ft 8 kts 245°
2026-05-07 20:36 39.85996 -104.68499 5370 ft 11 kts 213°
2026-05-07 20:36 39.85890 -104.68510 5367 ft 25 kts 180°
2026-05-07 20:36 39.85773 -104.68512 5370 ft 7 kts 181°
2026-05-07 20:36 39.85711 -104.68510 5368 ft 14 kts 178°
2026-05-07 20:37 39.85589 -104.68513 5369 ft 22 kts 182°
2026-05-07 20:37 39.85422 -104.68515 5374 ft 24 kts 178°
2026-05-07 20:37 39.85275 -104.68517 5374 ft 17 kts 181°
2026-05-07 20:37 39.85204 -104.68618 5370 ft 18 kts 267°
2026-05-07 20:38 39.85200 -104.68801 5364 ft 24 kts 268°
2026-05-07 20:38 39.85195 -104.69043 5353 ft 28 kts 268°
2026-05-07 20:38 39.85197 -104.69303 5343 ft 29 kts 271°
2026-05-07 20:38 39.85199 -104.69494 5335 ft 7 kts 271°
2026-05-07 20:39 39.85199 -104.69499 5335 ft 0 kts 271°
2026-05-07 20:39 39.85199 -104.69502 5339 ft 2 kts 271°
2026-05-07 20:39 39.85200 -104.69562 5338 ft 9 kts 271°
2026-05-07 20:40 39.85222 -104.69641 5336 ft 14 kts 320°
2026-05-07 20:40 39.85308 -104.69657 5339 ft 17 kts 360°
2026-05-07 20:40 39.85648 -104.69653 5337 ft 84 kts
2026-05-07 20:40 39.86466 -104.69645 5335 ft 149 kts
2026-05-07 20:41 39.87663 -104.69634 5475 ft 192 kts
2026-05-07 20:41 39.89052 -104.69613 6203 ft 203 kts
2026-05-07 20:41 39.90412 -104.69380 7252 ft 195 kts 21°
2026-05-07 20:41 39.91554 -104.68320 7750 ft 214 kts 53°
2026-05-07 20:42 39.92088 -104.66445 7972 ft 233 kts 90°
2026-05-07 20:42 39.91638 -104.64378 8303 ft 246 kts 118°
2026-05-07 20:42 39.90776 -104.62399 8799 ft 256 kts 121°
2026-05-07 20:42 39.89793 -104.60332 9019 ft 283 kts 123°
2026-05-07 20:43 39.88802 -104.58013 9399 ft 301 kts 117°
2026-05-07 20:43 39.87807 -104.55602 9973 ft 302 kts 120°
2026-05-07 20:43 39.86733 -104.53234 9976 ft 301 kts 121°
2026-05-07 20:43 39.85688 -104.50896 9994 ft 298 kts 119°
2026-05-07 20:44 39.84701 -104.48579 9992 ft 295 kts 118°
2026-05-07 20:44 39.83736 -104.46218 10012 ft 296 kts 117°
2026-05-07 20:44 39.82786 -104.43839 10009 ft 297 kts 117°
2026-05-07 20:44 39.81832 -104.41435 10007 ft 299 kts 117°
2026-05-07 20:45 39.80884 -104.39029 10016 ft 300 kts 116°
2026-05-07 20:45 39.79980 -104.36516 10110 ft 316 kts 114°
2026-05-07 20:45 39.79061 -104.33836 10535 ft 331 kts 114°
2026-05-07 20:45 39.78118 -104.31075 11217 ft 336 kts 114°
2026-05-07 20:46 39.77161 -104.28287 11965 ft 339 kts 114°
2026-05-07 20:46 39.76192 -104.25478 12694 ft 342 kts 114°
2026-05-07 20:46 39.75223 -104.22682 13380 ft 346 kts 114°
2026-05-07 20:46 39.74228 -104.19825 14055 ft 349 kts 114°
2026-05-07 20:47 39.73240 -104.16995 14709 ft 353 kts 114°
2026-05-07 20:47 39.72218 -104.14075 15367 ft 356 kts 115°
2026-05-07 20:47 39.71178 -104.11129 16011 ft 360 kts 115°
2026-05-07 20:47 39.70128 -104.08166 16639 ft 363 kts 115°
2026-05-07 20:48 39.69064 -104.05165 17248 ft 367 kts 115°
2026-05-07 20:48 39.67992 -104.02141 17834 ft 370 kts 115°
2026-05-07 20:48 39.66911 -103.99094 18410 ft 374 kts 115°
2026-05-07 20:48 39.65832 -103.96057 18966 ft 377 kts 115°
2026-05-07 20:49 39.64680 -103.92978 19531 ft 380 kts 117°
2026-05-07 20:49 39.63426 -103.89938 20065 ft 383 kts 118°
2026-05-07 20:49 39.62146 -103.86893 20595 ft 386 kts 118°
2026-05-07 20:49 39.60863 -103.83811 21110 ft 389 kts 118°
2026-05-07 20:50 39.59578 -103.80698 21633 ft 392 kts 118°
2026-05-07 20:50 39.58408 -103.77486 22106 ft 395 kts 112°
2026-05-07 20:50 39.57745 -103.75280 22432 ft 397 kts 110°
2026-05-07 20:50 39.56814 -103.71888 22895 ft 400 kts 109°
2026-05-07 20:51 39.55905 -103.68465 23357 ft 403 kts 109°
2026-05-07 20:51 39.54984 -103.65019 23785 ft 406 kts 109°
2026-05-07 20:51 39.54040 -103.61553 24200 ft 409 kts 110°
2026-05-07 20:51 39.53074 -103.58065 24604 ft 412 kts 110°
2026-05-07 20:52 39.52090 -103.54562 25007 ft 415 kts 110°
2026-05-07 20:52 39.51094 -103.51045 25404 ft 417 kts 110°
2026-05-07 20:52 39.50089 -103.47510 25791 ft 420 kts 110°
2026-05-07 20:52 39.49076 -103.43955 26163 ft 422 kts 110°
2026-05-07 20:53 39.48054 -103.40375 26530 ft 425 kts 110°
2026-05-07 20:53 39.47026 -103.36778 26887 ft 427 kts 110°
2026-05-07 20:53 39.46004 -103.33208 27241 ft 429 kts 110°
2026-05-07 20:53 39.44962 -103.29568 27574 ft 431 kts 110°
2026-05-07 20:54 39.43915 -103.25915 27914 ft 434 kts 110°
2026-05-07 20:54 39.42860 -103.22243 28223 ft 436 kts 110°
2026-05-07 20:54 39.41798 -103.18551 28534 ft 438 kts 110°
2026-05-07 20:54 39.40733 -103.14850 28837 ft 440 kts 110°
2026-05-07 20:55 39.39659 -103.11125 29136 ft 442 kts 110°
2026-05-07 20:55 39.38582 -103.07392 29427 ft 444 kts 110°
2026-05-07 20:55 39.37500 -103.03642 29713 ft 446 kts 110°
2026-05-07 20:55 39.36410 -102.99877 29990 ft 448 kts 110°
2026-05-07 20:56 39.35313 -102.96097 30260 ft 450 kts 110°
2026-05-07 20:56 39.34118 -102.92353 30521 ft 452 kts 115°
2026-05-07 20:56 39.32753 -102.88752 30784 ft 453 kts 117°
2026-05-07 20:56 39.31289 -102.85141 31033 ft 455 kts 118°
2026-05-07 20:57 39.29800 -102.81518 31267 ft 457 kts 118°
2026-05-07 20:57 39.28316 -102.77872 31502 ft 459 kts 117°
2026-05-07 20:57 39.26848 -102.74213 31731 ft 460 kts 117°
2026-05-07 20:57 39.25384 -102.70520 31951 ft 462 kts 117°
2026-05-07 20:58 39.23930 -102.66831 32201 ft 462 kts 117°
2026-05-07 20:58 39.22475 -102.63133 32487 ft 462 kts 117°
2026-05-07 20:58 39.21018 -102.59432 32761 ft 461 kts 117°
2026-05-07 20:58 39.19581 -102.55786 33041 ft 461 kts 117°
2026-05-07 20:59 39.18129 -102.52112 33319 ft 460 kts 117°
2026-05-07 20:59 39.16674 -102.48431 33583 ft 460 kts 117°
2026-05-07 20:59 39.15222 -102.44769 33857 ft 459 kts 117°
2026-05-07 20:59 39.13770 -102.41112 34134 ft 458 kts 117°
2026-05-07 21:00 39.12312 -102.37459 34392 ft 458 kts 117°
2026-05-07 21:00 39.10847 -102.33813 34660 ft 457 kts 117°
2026-05-07 21:00 39.09386 -102.30181 34922 ft 457 kts 117°
2026-05-07 21:00 39.07927 -102.26558 35175 ft 456 kts 117°
2026-05-07 21:01 39.06467 -102.22933 35424 ft 456 kts 117°
2026-05-07 21:01 39.05009 -102.19314 35657 ft 455 kts 117°
2026-05-07 21:01 39.03552 -102.15698 35869 ft 455 kts 117°
2026-05-07 21:01 39.02089 -102.12072 36066 ft 456 kts 117°
2026-05-07 21:02 39.00625 -102.08447 36194 ft 457 kts 117°
2026-05-07 21:02 38.99153 -102.04806 36321 ft 459 kts 117°
2026-05-07 21:02 38.97679 -102.01165 36443 ft 461 kts 117°
2026-05-07 21:02 38.96197 -101.97510 36649 ft 460 kts 117°
2026-05-07 21:03 38.94719 -101.93866 36885 ft 459 kts 117°
2026-05-07 21:03 38.91775 -101.86621 36962 ft 461 kts 117°
2026-05-07 21:04 38.88803 -101.79323 36955 ft 459 kts 118°
2026-05-07 21:04 38.85845 -101.72076 36958 ft 457 kts 118°
2026-05-07 21:05 38.83402 -101.64584 36977 ft 454 kts 108°
2026-05-07 21:05 38.81566 -101.56852 36972 ft 453 kts 107°
2026-05-07 21:06 38.79750 -101.49102 36967 ft 454 kts 107°
2026-05-07 21:06 38.77879 -101.41419 36968 ft 455 kts 108°
2026-05-07 21:07 38.75948 -101.33680 36969 ft 457 kts 108°
2026-05-07 21:07 38.73997 -101.25925 36965 ft 459 kts 108°
2026-05-07 21:08 38.72029 -101.18124 36970 ft 461 kts 108°
2026-05-07 21:08 38.70050 -101.10299 36967 ft 462 kts 108°
2026-05-07 21:09 38.68061 -101.02456 36965 ft 464 kts 108°
2026-05-07 21:09 38.66062 -100.94600 36964 ft 465 kts 108°
2026-05-07 21:10 38.64054 -100.86731 36963 ft 465 kts 108°
2026-05-07 21:10 38.62045 -100.78884 36964 ft 464 kts 108°
2026-05-07 21:11 38.60032 -100.71048 36962 ft 463 kts 108°
2026-05-07 21:11 38.57011 -100.59332 36963 ft 461 kts 108°
2026-05-07 21:12 38.55000 -100.51564 36963 ft 460 kts 108°
2026-05-07 21:12 38.52989 -100.43816 36964 ft 459 kts 108°
2026-05-07 21:13 38.50990 -100.36142 36964 ft 458 kts 108°
2026-05-07 21:13 38.48976 -100.28434 36964 ft 457 kts 109°
2026-05-07 21:14 38.46959 -100.20739 36965 ft 457 kts 109°
2026-05-07 21:14 38.44940 -100.13056 36968 ft 456 kts 109°
2026-05-07 21:15 38.42914 -100.05374 36963 ft 457 kts 109°
2026-05-07 21:15 38.40883 -99.97697 36965 ft 457 kts 109°
2026-05-07 21:16 38.38861 -99.90073 36964 ft 457 kts 109°
2026-05-07 21:16 38.36818 -99.82397 36964 ft 457 kts 109°
2026-05-07 21:17 38.34769 -99.74719 36966 ft 457 kts 109°
2026-05-07 21:17 38.32720 -99.67059 36964 ft 457 kts 109°
2026-05-07 21:18 38.30657 -99.59377 36965 ft 458 kts 109°
2026-05-07 21:18 38.28605 -99.51757 36962 ft 458 kts 109°
2026-05-07 21:19 38.26533 -99.44085 36964 ft 458 kts 109°
2026-05-07 21:19 38.24454 -99.36411 36965 ft 459 kts 109°
2026-05-07 21:20 38.22368 -99.28735 36965 ft 459 kts 109°
2026-05-07 21:20 38.20275 -99.21053 36967 ft 459 kts 109°
2026-05-07 21:21 38.18190 -99.13426 36964 ft 460 kts 109°
2026-05-07 21:21 38.16086 -99.05750 36964 ft 460 kts 109°
2026-05-07 21:22 38.13974 -98.98069 36964 ft 460 kts 109°
2026-05-07 21:22 38.11858 -98.90393 36965 ft 460 kts 109°
2026-05-07 21:23 38.09738 -98.82726 36964 ft 460 kts 109°
2026-05-07 21:23 38.07614 -98.75070 36964 ft 460 kts 109°
2026-05-07 21:24 38.05488 -98.67424 36964 ft 459 kts 109°
2026-05-07 21:24 38.03356 -98.59784 36962 ft 459 kts 109°
2026-05-07 21:25 38.01228 -98.52177 36965 ft 457 kts 110°
2026-05-07 21:25 37.99096 -98.44576 36963 ft 457 kts 110°
2026-05-07 21:26 37.96964 -98.37001 36968 ft 456 kts 110°
2026-05-07 21:26 37.94827 -98.29428 36966 ft 456 kts 110°
2026-05-07 21:27 37.92703 -98.21919 36964 ft 455 kts 110°
2026-05-07 21:27 37.90559 -98.14366 36964 ft 455 kts 110°
2026-05-07 21:28 37.88414 -98.06826 36965 ft 455 kts 110°
2026-05-07 21:28 37.86263 -97.99290 36967 ft 455 kts 110°
2026-05-07 21:29 37.84103 -97.91739 36964 ft 456 kts 110°
2026-05-07 21:29 37.81943 -97.84210 36965 ft 456 kts 110°
2026-05-07 21:30 37.79774 -97.76670 36965 ft 456 kts 110°
2026-05-07 21:30 37.77615 -97.69180 36967 ft 456 kts 110°
2026-05-07 21:31 37.75437 -97.61647 36963 ft 456 kts 110°
2026-05-07 21:31 37.72962 -97.54275 36971 ft 456 kts 117°
2026-05-07 21:32 37.70002 -97.47181 36961 ft 456 kts 118°
2026-05-07 21:32 37.67003 -97.40115 36965 ft 456 kts 118°
2026-05-07 21:33 37.64040 -97.33033 36966 ft 456 kts 118°
2026-05-07 21:33 37.61099 -97.25944 36962 ft 455 kts 117°
2026-05-07 21:34 37.58190 -97.18922 36964 ft 455 kts 118°
2026-05-07 21:34 37.55256 -97.11857 36966 ft 454 kts 118°
2026-05-07 21:35 37.52323 -97.04813 36964 ft 454 kts 118°
2026-05-07 21:35 37.49385 -96.97774 36963 ft 453 kts 118°
2026-05-07 21:36 37.46442 -96.90740 36965 ft 453 kts 118°
2026-05-07 21:36 37.43516 -96.83761 36964 ft 453 kts 118°
2026-05-07 21:37 37.40570 -96.76750 36964 ft 453 kts 118°
2026-05-07 21:37 37.38100 -96.70883 36966 ft 453 kts 118°
2026-05-07 21:38 37.35170 -96.63939 36996 ft 452 kts 118°
2026-05-07 21:38 37.32222 -96.56966 37035 ft 452 kts 118°
2026-05-07 21:39 37.29260 -96.49976 36973 ft 454 kts 118°
2026-05-07 21:39 37.26288 -96.42977 36964 ft 454 kts 118°
2026-05-07 21:40 37.23310 -96.35981 36967 ft 454 kts 118°
2026-05-07 21:40 37.20326 -96.28983 36992 ft 453 kts 118°
2026-05-07 21:41 37.17351 -96.22023 37049 ft 452 kts 118°
2026-05-07 21:41 37.14398 -96.15128 37053 ft 451 kts 118°
2026-05-07 21:42 37.11426 -96.08205 37057 ft 451 kts 118°
2026-05-07 21:42 37.08447 -96.01280 37057 ft 451 kts 118°
2026-05-07 21:43 37.05471 -95.94376 37061 ft 451 kts 118°
2026-05-07 21:43 37.02488 -95.87470 37056 ft 450 kts 118°
2026-05-07 21:44 36.99503 -95.80577 37057 ft 450 kts 118°
2026-05-07 21:44 36.96516 -95.73690 37059 ft 450 kts 118°
2026-05-07 21:45 36.93545 -95.66857 37057 ft 450 kts 118°
2026-05-07 21:45 36.90547 -95.59975 37057 ft 450 kts 118°
2026-05-07 21:46 36.87550 -95.53111 37057 ft 450 kts 118°
2026-05-07 21:46 36.84548 -95.46250 37056 ft 450 kts 119°
2026-05-07 21:47 36.81560 -95.39434 37057 ft 450 kts 119°
2026-05-07 21:47 36.78553 -95.32589 37056 ft 450 kts 119°
2026-05-07 21:48 36.75534 -95.25733 37058 ft 450 kts 119°
2026-05-07 21:48 36.72517 -95.18894 37057 ft 450 kts 119°
2026-05-07 21:49 36.69491 -95.12049 37059 ft 450 kts 119°
2026-05-07 21:49 36.66463 -95.05213 37056 ft 450 kts 119°
2026-05-07 21:50 36.63447 -94.98419 37056 ft 450 kts 119°
2026-05-07 21:50 36.60413 -94.91599 37056 ft 450 kts 119°
2026-05-07 21:51 36.57373 -94.84778 37056 ft 450 kts 119°
2026-05-07 21:51 36.54338 -94.77984 37056 ft 449 kts 119°
2026-05-07 21:52 36.51299 -94.71193 37056 ft 449 kts 119°
2026-05-07 21:52 36.48276 -94.64453 37059 ft 449 kts 119°
2026-05-07 21:53 36.45231 -94.57677 37058 ft 449 kts 119°
2026-05-07 21:53 36.42180 -94.50902 37059 ft 449 kts 119°
2026-05-07 21:54 36.39126 -94.44133 37058 ft 449 kts 119°
2026-05-07 21:54 36.36066 -94.37363 37056 ft 449 kts 119°
2026-05-07 21:55 36.33005 -94.30605 37058 ft 449 kts 119°
2026-05-07 21:55 36.29939 -94.23848 37056 ft 450 kts 120°
2026-05-07 21:56 36.26886 -94.17129 37057 ft 449 kts 120°
2026-05-07 21:56 36.23839 -94.10357 37054 ft 449 kts 118°
2026-05-07 21:57 36.21038 -94.03440 37059 ft 449 kts 116°
2026-05-07 21:57 36.18311 -93.96480 37056 ft 449 kts 116°
2026-05-07 21:58 36.15562 -93.89526 37057 ft 449 kts 116°
2026-05-07 21:58 36.12807 -93.82631 37056 ft 449 kts 116°
2026-05-07 21:59 36.10027 -93.75711 37057 ft 449 kts 116°
2026-05-07 21:59 36.07237 -93.68786 37057 ft 449 kts 117°
2026-05-07 22:00 36.04444 -93.61867 37056 ft 449 kts 117°
2026-05-07 22:00 36.01648 -93.54954 37057 ft 450 kts 117°
2026-05-07 22:01 35.98846 -93.48039 37057 ft 450 kts 117°
2026-05-07 22:01 35.96037 -93.41123 37060 ft 451 kts 117°
2026-05-07 22:02 35.93238 -93.34247 37053 ft 451 kts 117°
2026-05-07 22:02 35.90417 -93.27330 37057 ft 451 kts 117°
2026-05-07 22:03 35.87588 -93.20409 37058 ft 451 kts 117°
2026-05-07 22:03 35.84751 -93.13482 37059 ft 452 kts 117°
2026-05-07 22:04 35.81915 -93.06573 37059 ft 452 kts 117°
2026-05-07 22:04 35.79095 -92.99716 37056 ft 452 kts 117°
2026-05-07 22:05 35.76250 -92.92814 37054 ft 452 kts 117°
2026-05-07 22:05 35.73398 -92.85909 37053 ft 452 kts 117°
2026-05-07 22:06 35.70543 -92.79012 37057 ft 452 kts 117°
2026-05-07 22:06 35.67684 -92.72120 37058 ft 452 kts 117°
2026-05-07 22:07 35.64824 -92.65239 37056 ft 452 kts 117°
2026-05-07 22:07 35.61970 -92.58386 37057 ft 452 kts 117°
2026-05-07 22:08 35.59101 -92.51513 37058 ft 452 kts 117°
2026-05-07 22:08 35.56226 -92.44639 37058 ft 452 kts 117°
2026-05-07 22:09 35.53350 -92.37777 37059 ft 451 kts 117°
2026-05-07 22:09 35.50471 -92.30921 37058 ft 451 kts 117°
2026-05-07 22:10 35.47613 -92.24132 37056 ft 451 kts 117°
2026-05-07 22:10 35.44730 -92.17295 37057 ft 450 kts 117°
2026-05-07 22:11 35.41850 -92.10480 37056 ft 450 kts 117°
2026-05-07 22:11 35.38965 -92.03666 37058 ft 450 kts 117°
2026-05-07 22:12 35.36076 -91.96858 37058 ft 449 kts 117°
2026-05-07 22:12 35.33207 -91.90111 37057 ft 449 kts 117°
2026-05-07 22:13 35.30319 -91.83332 37057 ft 449 kts 117°
2026-05-07 22:13 35.27428 -91.76559 37055 ft 448 kts 117°
2026-05-07 22:14 35.24536 -91.69800 37058 ft 448 kts 118°
2026-05-07 22:14 35.21655 -91.63077 37056 ft 448 kts 118°
2026-05-07 22:15 35.18762 -91.56340 37057 ft 448 kts 118°
2026-05-07 22:15 35.15863 -91.49603 37056 ft 447 kts 118°
2026-05-07 22:16 35.12964 -91.42878 37057 ft 447 kts 118°
2026-05-07 22:16 35.10053 -91.36142 37057 ft 447 kts 118°
2026-05-07 22:17 35.07164 -91.29468 37057 ft 447 kts 118°
2026-05-07 22:17 35.04248 -91.22744 37057 ft 447 kts 118°
2026-05-07 22:18 34.99866 -91.12667 37060 ft 447 kts 118°
2026-05-07 22:19 34.96942 -91.05960 37054 ft 448 kts 118°
2026-05-07 22:19 34.94036 -90.99306 37057 ft 447 kts 118°
2026-05-07 22:20 34.91104 -90.92606 37058 ft 447 kts 118°
2026-05-07 22:20 34.88171 -90.85917 37057 ft 448 kts 118°
2026-05-07 22:21 34.85230 -90.79222 37057 ft 448 kts 118°
2026-05-07 22:21 34.82285 -90.72533 37057 ft 448 kts 118°
2026-05-07 22:22 34.79338 -90.65851 37057 ft 448 kts 118°
2026-05-07 22:22 34.76406 -90.59217 37057 ft 448 kts 118°
2026-05-07 22:23 34.73430 -90.52496 37057 ft 448 kts 118°
2026-05-07 22:23 34.70495 -90.45878 37057 ft 448 kts 118°
2026-05-07 22:24 34.67532 -90.39212 37057 ft 448 kts 118°
2026-05-07 22:24 34.64568 -90.32555 37056 ft 448 kts 118°
2026-05-07 22:25 34.61594 -90.25888 37057 ft 448 kts 118°
2026-05-07 22:25 34.58636 -90.19270 37056 ft 448 kts 118°
2026-05-07 22:26 34.55662 -90.12626 37056 ft 448 kts 118°
2026-05-07 22:26 34.53188 -90.07105 37060 ft 448 kts 118°
2026-05-07 22:27 34.50194 -90.00466 37057 ft 448 kts 121°
2026-05-07 22:27 34.46594 -89.94315 37057 ft 448 kts 127°
2026-05-07 22:28 34.42794 -89.88341 37056 ft 448 kts 128°
2026-05-07 22:28 34.38994 -89.82349 37056 ft 448 kts 127°
2026-05-07 22:29 34.35224 -89.76352 37058 ft 448 kts 127°
2026-05-07 22:29 34.31458 -89.70341 37058 ft 448 kts 127°
2026-05-07 22:30 34.27721 -89.64382 37057 ft 447 kts 127°
2026-05-07 22:30 34.23954 -89.58384 37058 ft 447 kts 127°
2026-05-07 22:31 34.20188 -89.52401 37056 ft 447 kts 127°
2026-05-07 22:31 34.16414 -89.46416 37059 ft 447 kts 127°
2026-05-07 22:32 34.12642 -89.40443 37057 ft 447 kts 127°
2026-05-07 22:32 34.08868 -89.34478 37059 ft 447 kts 127°
2026-05-07 22:33 34.05115 -89.28555 37056 ft 447 kts 127°
2026-05-07 22:33 34.01343 -89.22611 37057 ft 446 kts 127°
2026-05-07 22:34 33.97566 -89.16670 37057 ft 446 kts 128°
2026-05-07 22:34 33.93785 -89.10733 37058 ft 446 kts 128°
2026-05-07 22:35 33.90007 -89.04809 37055 ft 446 kts 128°
2026-05-07 22:35 33.86225 -88.98890 37056 ft 446 kts 128°
2026-05-07 22:36 33.82439 -88.92973 37056 ft 446 kts 128°
2026-05-07 22:36 33.78675 -88.87102 37058 ft 445 kts 128°
2026-05-07 22:37 33.74894 -88.81212 37058 ft 446 kts 128°
2026-05-07 22:37 33.71091 -88.75297 37060 ft 448 kts 128°
2026-05-07 22:38 33.67261 -88.69352 37063 ft 451 kts 128°
2026-05-07 22:38 33.63420 -88.63398 37054 ft 449 kts 128°
2026-05-07 22:39 33.59599 -88.57485 37054 ft 447 kts 128°
2026-05-07 22:39 33.55781 -88.51585 37061 ft 448 kts 128°
2026-05-07 22:40 33.51948 -88.45671 37059 ft 449 kts 128°
2026-05-07 22:40 33.48141 -88.39810 37057 ft 448 kts 128°
2026-05-07 22:41 33.44317 -88.33931 37056 ft 447 kts 128°
2026-05-07 22:41 33.40486 -88.28051 37061 ft 448 kts 128°
2026-05-07 22:42 33.36642 -88.22159 37060 ft 449 kts 128°
2026-05-07 22:42 33.32787 -88.16261 37057 ft 449 kts 128°
2026-05-07 22:43 33.28952 -88.10401 37050 ft 446 kts 128°
2026-05-07 22:43 33.25137 -88.04580 37055 ft 443 kts 128°
2026-05-07 22:44 33.21356 -87.98823 37060 ft 443 kts 128°
2026-05-07 22:44 33.17549 -87.93036 37056 ft 442 kts 128°
2026-05-07 22:45 33.13754 -87.87274 37055 ft 441 kts 128°
2026-05-07 22:45 33.09951 -87.81510 37058 ft 442 kts 128°
2026-05-07 22:46 33.06142 -87.75743 37059 ft 442 kts 128°
2026-05-07 22:46 33.02351 -87.70012 37058 ft 443 kts 128°
2026-05-07 22:47 32.98522 -87.64234 37057 ft 443 kts 128°
2026-05-07 22:47 32.94694 -87.58469 37055 ft 444 kts 128°
2026-05-07 22:48 32.90861 -87.52705 37056 ft 444 kts 128°
2026-05-07 22:48 32.87025 -87.46945 37056 ft 444 kts 128°
2026-05-07 22:49 32.83194 -87.41201 37054 ft 442 kts 128°
2026-05-07 22:49 32.79371 -87.35477 37056 ft 440 kts 128°
2026-05-07 22:50 32.75587 -87.29822 37054 ft 439 kts 128°
2026-05-07 22:50 32.71785 -87.24147 37053 ft 439 kts 129°
2026-05-07 22:51 32.67977 -87.18473 37057 ft 439 kts 129°
2026-05-07 22:51 32.64149 -87.12778 37059 ft 441 kts 129°
2026-05-07 22:52 32.60306 -87.07067 37064 ft 444 kts 129°
2026-05-07 22:52 32.56433 -87.01323 37067 ft 447 kts 129°
2026-05-07 22:53 32.52554 -86.95578 37061 ft 450 kts 129°
2026-05-07 22:53 32.48625 -86.89768 37060 ft 452 kts 129°
2026-05-07 22:54 32.44686 -86.83952 37057 ft 453 kts 129°
2026-05-07 22:54 32.40735 -86.78128 37054 ft 453 kts 129°
2026-05-07 22:55 32.36791 -86.72322 37057 ft 452 kts 129°
2026-05-07 22:55 32.32851 -86.66532 37054 ft 451 kts 129°
2026-05-07 22:56 32.28920 -86.60764 37054 ft 450 kts 129°
2026-05-07 22:56 32.24998 -86.55017 37057 ft 448 kts 129°
2026-05-07 22:57 32.21104 -86.49321 37058 ft 448 kts 129°
2026-05-07 22:57 32.17163 -86.43564 37059 ft 448 kts 129°
2026-05-07 22:58 32.13241 -86.37844 37058 ft 448 kts 129°
2026-05-07 22:58 32.09336 -86.32156 37056 ft 448 kts 129°
2026-05-07 22:59 32.05402 -86.26435 37058 ft 449 kts 129°
2026-05-07 22:59 32.01470 -86.20726 37058 ft 449 kts 129°
2026-05-07 23:00 31.97529 -86.15012 36996 ft 450 kts 129°
2026-05-07 23:00 31.93564 -86.09271 36973 ft 451 kts 129°
2026-05-07 23:01 31.89601 -86.03542 36963 ft 451 kts 129°
2026-05-07 23:01 31.85646 -85.97832 37002 ft 449 kts 129°
2026-05-07 23:02 31.81727 -85.92180 37048 ft 448 kts 129°
2026-05-07 23:02 31.77782 -85.86502 37059 ft 449 kts 129°
2026-05-07 23:03 31.73704 -85.80933 37057 ft 449 kts 132°
2026-05-07 23:03 31.69475 -85.75525 37055 ft 448 kts 133°
2026-05-07 23:04 31.65253 -85.70126 37058 ft 448 kts 132°
2026-05-07 23:04 31.61058 -85.64714 37059 ft 448 kts 132°
2026-05-07 23:05 31.56874 -85.59296 37012 ft 449 kts 132°
2026-05-07 23:05 31.52673 -85.53859 36973 ft 450 kts 132°
2026-05-07 23:06 31.48466 -85.48423 36963 ft 451 kts 132°
2026-05-07 23:06 31.44264 -85.43001 36968 ft 452 kts 132°
2026-05-07 23:07 31.40024 -85.37541 36964 ft 453 kts 132°
2026-05-07 23:07 31.35773 -85.32073 36968 ft 454 kts 132°
2026-05-07 23:08 31.31520 -85.26611 37034 ft 453 kts 132°
2026-05-07 23:08 31.27278 -85.21171 37047 ft 453 kts 132°
2026-05-07 23:09 31.23031 -85.15732 37003 ft 454 kts 132°
2026-05-07 23:09 31.18796 -85.10317 36972 ft 454 kts 133°
2026-05-07 23:10 31.14533 -85.04873 36958 ft 453 kts 133°
2026-05-07 23:10 31.10281 -84.99451 36963 ft 452 kts 133°
2026-05-07 23:11 31.06748 -84.94952 36966 ft 451 kts 133°
2026-05-07 23:11 31.02513 -84.89566 36962 ft 450 kts 133°
2026-05-07 23:12 30.98282 -84.84192 36964 ft 449 kts 133°
2026-05-07 23:12 30.94062 -84.78841 36963 ft 449 kts 133°
2026-05-07 23:13 30.89820 -84.73469 36970 ft 451 kts 133°
2026-05-07 23:13 30.85590 -84.68118 36965 ft 452 kts 133°
2026-05-07 23:14 30.81316 -84.62721 36966 ft 453 kts 133°
2026-05-07 23:14 30.77043 -84.57332 36967 ft 454 kts 133°
2026-05-07 23:15 30.72765 -84.51945 37047 ft 452 kts 133°
2026-05-07 23:15 30.68503 -84.46585 37051 ft 451 kts 133°
2026-05-07 23:16 30.64244 -84.41235 37056 ft 451 kts 133°
2026-05-07 23:16 30.59980 -84.35888 37058 ft 451 kts 133°
2026-05-07 23:17 30.55737 -84.30572 36984 ft 452 kts 133°
2026-05-07 23:17 30.51455 -84.25216 36973 ft 452 kts 133°
2026-05-07 23:18 30.47176 -84.19870 36962 ft 452 kts 133°
2026-05-07 23:18 30.42903 -84.14537 36966 ft 451 kts 133°
2026-05-07 23:19 30.38627 -84.09210 36964 ft 450 kts 133°
2026-05-07 23:19 30.36341 -84.06786 36944 ft 450 kts 147°
2026-05-07 23:19 30.33673 -84.04920 36985 ft 448 kts 150°
2026-05-07 23:20 30.28211 -84.01428 36970 ft 448 kts 151°
2026-05-07 23:20 30.22748 -83.97916 36962 ft 449 kts 150°
2026-05-07 23:21 30.17313 -83.94344 36987 ft 448 kts 150°
2026-05-07 23:21 30.11923 -83.90775 36968 ft 449 kts 150°
2026-05-07 23:22 30.06495 -83.87183 36967 ft 450 kts 150°
2026-05-07 23:22 30.01055 -83.83590 36965 ft 450 kts 150°
2026-05-07 23:23 29.95612 -83.80000 36964 ft 451 kts 150°
2026-05-07 23:23 29.90161 -83.76410 36965 ft 451 kts 150°
2026-05-07 23:24 29.84711 -83.72822 36964 ft 451 kts 150°
2026-05-07 23:24 29.79280 -83.69257 36964 ft 451 kts 150°
2026-05-07 23:25 29.73821 -83.65683 36964 ft 451 kts 150°
2026-05-07 23:25 29.68359 -83.62109 36964 ft 451 kts 150°
2026-05-07 23:26 29.62899 -83.58538 36964 ft 451 kts 150°
2026-05-07 23:26 29.57473 -83.54992 36964 ft 451 kts 150°
2026-05-07 23:27 29.49313 -83.49668 37053 ft 448 kts 150°
2026-05-07 23:27 29.43880 -83.46128 37054 ft 449 kts 150°
2026-05-07 23:28 29.38440 -83.42588 37059 ft 449 kts 150°
2026-05-07 23:28 29.33034 -83.39073 37058 ft 450 kts 150°
2026-05-07 23:29 29.27582 -83.35533 37058 ft 450 kts 150°
2026-05-07 23:29 29.22024 -83.32213 37057 ft 451 kts 155°
2026-05-07 23:30 29.16261 -83.29354 37058 ft 451 kts 157°
2026-05-07 23:30 29.10475 -83.26530 37056 ft 452 kts 156°
2026-05-07 23:31 29.04747 -83.23674 37056 ft 452 kts 156°
2026-05-07 23:31 28.98955 -83.20749 37056 ft 452 kts 156°
2026-05-07 23:32 28.93244 -83.17860 37058 ft 452 kts 156°
2026-05-07 23:32 28.87487 -83.14952 37055 ft 451 kts 156°
2026-05-07 23:33 28.81758 -83.12064 37056 ft 451 kts 156°
2026-05-07 23:33 28.76015 -83.09172 37055 ft 450 kts 156°
2026-05-07 23:34 28.70290 -83.06293 37055 ft 450 kts 156°
2026-05-07 23:34 28.64563 -83.03416 37057 ft 449 kts 156°
2026-05-07 23:35 28.58848 -83.00549 37058 ft 449 kts 156°
2026-05-07 23:35 28.53129 -82.97683 37056 ft 448 kts 156°
2026-05-07 23:36 28.47417 -82.94824 37055 ft 448 kts 156°
2026-05-07 23:36 28.41701 -82.91967 37058 ft 448 kts 156°
2026-05-07 23:37 28.35986 -82.89113 37058 ft 449 kts 156°
2026-05-07 23:37 28.30241 -82.86247 37064 ft 452 kts 156°
2026-05-07 23:38 28.24467 -82.83370 37062 ft 454 kts 156°
2026-05-07 23:38 28.18669 -82.80485 37058 ft 456 kts 156°
2026-05-07 23:39 28.12901 -82.77617 37049 ft 453 kts 156°
2026-05-07 23:39 28.07154 -82.74761 37050 ft 446 kts 156°
2026-05-07 23:40 28.01458 -82.71952 37058 ft 446 kts 159°
2026-05-07 23:40 28.00519 -82.71569 37048 ft 446 kts 164°